SCP
0 0 0 0 -0 -0 -0 -0 -0 -0 -0 -0 -0 -0 -0 -0 -0 -0 0 0 0 0 0 0 0 0 0 0 0 0 0 0 0
0 0 0 0 0 -0 -0 -0 -0 -0 -0 -0 -0 -0 -0 -0 -0 -0 0 0 0 0 0 0 0 0 0 0 0 0 0 0 0
0 0 0 0 -0 -0 -0 -0 -0 0 0 -0 -0 -1 -1 -0 -0 0 0 0 0 0 0 0 0 0 0 0 0 0 0 0 0
0 0 0 -0 -0 -0 -0 0 0 0 -0 -1 -1 -0 -0 -0 -0 0 0 0 0 0 0 0 0 0 0 0 0 0 0 0 0
-0 0 0 -0 0 0 -0 -0 -0 -0 -1 -1 -1 -1 -1 -0 -0 -0 0 0 0 0 0 0 0 0 0 0 0 0 0 0 0
-0 0 0 -0 0 -0 -0 -0 -0 -0 -1 -1 -1 -0 -0 -0 -0 0 0 0 0 0 0 0 0 0 0 0 0 0 0 0 0
0 0 -0 -0 -0 -0 -0 -0 -1 -1 -1 -1 -0 -1 -0 -0 0 0 0 0 0 0 0 0 0 0 0 0 0 0 0 0 0
0 0 0 -0 0 0 0 -0 -0 -1 -0 -0 -1 -1 -0 -0 0 0 0 0 0 0 0 0 0 0 0 0 0 0 0 0 0
0 -0 0 -0 0 0 0 -0 -1 -0 -0 0 0 0 0 0 0 0 0 0 0 0 0 0 0 0 0 0 0 0 0 0 0
-0 0 -0 0 0 0 1 0 0 0 1 1 1 1 1 1 0 0 0 0 0 0 0 0 0 0 0 0 0 0 0 0 0
-0 0 0 0 1 1 1 1 1 1 1 1 1 1 1 1 0 0 0 0 0 0 0 0 0 0 0 0 0 0 0 0 0
-0 -0 0 0 0 1 1 2 2 2 2 2 2 1 1 1 0 0 0 0 0 0 0 0 0 0 0 0 0 0 0 0 0
0 -0 0 0 1 2 2 2 3 3 3 2 2 1 1 0 0 0 0 0 0 0 0 0 0 0 0 0 0 0 0 0 0
1 1 0 1 1 2 3 4 4 4 2 1 1 0 0 0 0 0 0 0 0 0 0 0 0 0 0 0 0 0 0 0 0
2 1 0 1 2 3 4 4 4 3 2 1 0 0 0 0 0 0 0 0 0 0 0 0 0 0 0 0 0 0 0 0 0
2 1 1 1 3 4 4 4 3 2 1 0 1 0 0 0 0 0 0 0 0 0 0 0 0 0 0 0 0 0 0 0 0
2 0 0 1 3 4 4 3 2 1 1 0 0 0 0 0 0 0 0 0 0 0 0 0 0 0 0 0 0 0 0 0 0
0 0 -1 1 2 2 2 0 0 0 0 0 0 0 0 0 0 0 0 0 0 0 0 0 0 0 0 0 0 0 0 0 0
0 -1 0 1 1 1 1 0 0 0 0 0 0 0 0 0 0 0 0 0 0 0 0 0 0 0 0 0 0 -0 -0 -0 0
1 0 -0 -0 0 1 0 0 0 0 0 0 0 0 0 0 0 0 0 0 0 0 0 0 0 0 0 0 0 0 0 0 0
Wind_Speed_500mb
44 51 56 68 82 76 81 85 78 71 81 77 71 64 54 49 48 42 30 29 20 14 10 10 3 6 4 5 6 6 6 5 3
36 38 48 48 64 75 71 80 84 72 80 85 78 71 62 54 48 36 31 26 18 13 13 12 3 1 3 4 3 3 5 5 5
20 20 24 42 45 58 67 64 74 70 68 82 82 73 66 59 47 36 30 23 19 17 19 13 2 6 4 2 0 3 3 6 8
9 13 19 22 44 56 55 63 70 70 77 86 79 70 65 60 46 35 31 25 23 21 21 14 12 11 7 4 8 9 10 9 11
24 15 20 28 40 50 58 64 70 75 78 80 64 62 62 55 45 36 34 34 28 25 22 19 18 12 6 5 8 9 10 11 14
29 22 14 23 32 45 45 61 72 80 79 77 62 58 57 52 44 40 40 36 31 29 25 22 17 11 8 7 7 8 8 9 10
31 19 17 27 36 42 51 59 71 81 80 72 61 58 59 54 47 46 41 38 35 31 25 22 17 11 8 11 11 12 12 13 15
23 21 34 40 44 42 48 60 72 80 83 67 62 63 62 53 52 46 44 42 33 29 25 22 18 13 14 13 13 15 17 18 19
23 26 42 48 54 51 57 61 64 66 67 66 70 68 59 56 55 54 47 44 36 32 28 24 19 17 14 12 14 16 17 16 12
40 29 46 56 59 55 56 56 55 59 67 73 72 64 57 61 60 58 53 46 37 33 30 25 21 16 13 10 10 7 6 9 10
46 40 42 60 64 62 61 55 54 61 71 73 69 62 60 63 62 57 55 46 41 36 32 25 21 17 11 6 5 5 1 5 10
41 51 59 65 68 67 58 56 60 66 70 70 69 66 67 62 65 61 55 49 43 38 31 29 21 12 11 12 16 14 7 1 3
46 21 44 66 69 67 57 57 60 65 68 66 66 67 59 61 56 53 52 46 41 33 29 22 15 12 13 16 22 15 8 2 4
49 44 10 43 65 65 65 66 66 68 61 59 43 26 36 42 44 44 38 35 32 30 28 24 21 20 21 20 17 11 8 11 12
57 49 34 28 33 58 67 67 72 67 57 36 26 22 44 46 52 43 38 29 26 26 25 25 24 25 22 19 17 14 16 18 18
58 47 34 17 32 48 58 62 66 60 35 36 41 46 59 61 56 51 39 22 27 31 32 30 26 23 18 15 11 16 19 19 16
30 35 31 26 23 41 49 52 52 45 37 50 46 52 58 57 54 42 38 37 28 32 38 33 25 20 21 18 15 13 9 9 10
23 15 22 22 19 28 36 34 7 16 44 51 46 51 58 58 54 54 44 34 32 37 29 14 15 13 14 13 10 7 7 4 3
18 22 21 20 14 26 21 29 28 34 60 50 41 59 66 60 54 49 39 40 40 39 27 22 18 18 22 21 18 11 9 5 7
18 15 15 17 15 17 21 26 28 35 51 44 50 59 66 49 56 47 43 43 47 48 39 30 22 20 22 18 12 6 2 10 19
Wind_Direction_500mb
196 201 206 216 226 225 222 224 229 236 236 237 236 235 238 240 241 247 258 259 250 239 216 211 279 334 15 74 85 85 74 63 29
186 196 207 222 224 224 224 225 229 240 239 241 237 236 235 236 238 247 258 257 233 218 203 204 259 276 34 76 95 81 69 42 16
222 183 209 233 222 225 226 229 231 240 243 248 241 237 233 233 234 241 256 235 214 198 201 200 231 165 131 73 213 282 329 336 342
324 266 283 281 239 226 228 228 229 236 239 246 240 234 229 228 229 235 240 216 203 196 198 197 199 193 207 239 256 268 282 294 306
267 274 285 284 223 223 224 231 234 233 238 237 237 231 226 221 225 227 217 207 206 200 198 203 200 210 227 244 241 243 266 302 309
241 279 269 257 219 227 227 229 230 229 235 233 230 223 217 216 218 214 204 202 197 196 194 191 199 210 240 268 277 268 286 311 320
218 213 227 241 221 226 229 231 230 227 227 227 221 214 210 213 212 200 195 189 186 182 189 195 198 214 262 286 285 269 278 287 281
237 220 201 219 220 214 223 225 225 222 221 222 210 203 204 208 197 191 188 185 180 183 188 194 208 236 259 264 260 263 269 272 286
208 212 200 198 204 209 211 208 210 212 214 207 202 200 202 196 189 187 186 184 186 193 200 204 219 230 230 251 264 272 265 263 271
233 212 203 201 201 209 208 208 208 207 208 202 199 201 198 190 190 190 188 187 191 198 203 213 220 216 239 260 280 262 244 244 250
271 234 223 210 211 216 212 211 211 208 202 200 202 200 197 195 193 191 187 191 197 205 211 220 213 215 220 222 199 168 186 258 266
278 267 241 226 227 218 215 214 211 205 202 204 202 202 199 198 193 192 191 198 200 209 216 204 208 206 183 177 155 137 119 62 332
26 266 246 233 228 220 219 217 211 206 205 204 209 207 199 193 193 193 195 205 207 209 202 198 190 177 163 161 158 158 158 151 37
18 16 341 241 243 234 223 213 207 202 201 204 233 242 207 196 188 195 206 209 215 208 192 191 176 161 160 163 175 195 236 277 304
15 11 359 305 258 237 227 216 208 199 205 218 205 196 187 192 192 201 208 213 229 207 199 189 188 179 180 195 208 221 247 268 290
11 6 0 324 257 240 226 220 210 206 214 185 181 186 193 194 191 190 190 196 208 222 202 194 187 195 197 228 238 240 248 260 279
339 346 349 326 253 230 222 213 219 219 211 193 196 191 196 187 179 178 192 190 194 197 208 187 187 209 227 240 238 251 240 237 278
296 330 344 334 290 251 210 209 137 348 207 199 189 193 196 185 184 188 188 188 191 192 191 186 179 184 210 210 197 194 185 163 141
303 320 349 345 282 261 237 226 265 227 229 216 193 187 197 192 196 187 189 183 180 179 179 158 147 138 135 129 118 116 133 167 268
286 297 342 354 326 257 248 248 252 209 210 211 196 195 196 211 186 179 187 184 177 170 167 167 156 146 149 136 132 146 207 266 280
Wind_Speed_850mb
44 51 56 68 82 76 81 85 78 71 81 77 71 64 54 49 48 42 30 29 20 14 10 10 3 6 4 5 6 6 6 5 3
36 38 48 48 64 75 71 80 84 72 80 85 78 71 62 54 48 36 31 26 18 13 13 12 3 1 3 4 3 3 5 5 5
20 20 24 42 45 58 67 64 74 70 68 82 82 73 66 59 47 36 30 23 19 17 19 13 2 6 4 2 0 3 3 6 8
9 13 19 22 44 56 55 63 70 70 77 86 79 70 65 60 46 35 31 25 23 21 21 14 12 11 7 4 8 9 10 9 11
24 15 20 28 40 50 58 64 70 75 78 80 64 62 62 55 45 36 34 34 28 25 22 19 18 12 6 5 8 9 10 11 14
29 22 14 23 32 45 45 61 72 80 79 77 62 58 57 52 44 40 40 36 31 29 25 22 17 11 8 7 7 8 8 9 10
31 19 17 27 36 42 51 59 71 81 80 72 61 58 59 54 47 46 41 38 35 31 25 22 17 11 8 11 11 12 12 13 15
23 21 34 40 44 42 48 60 72 80 83 67 62 63 62 53 52 46 44 42 33 29 25 22 18 13 14 13 13 15 17 18 19
23 26 42 48 54 51 57 61 64 66 67 66 70 68 59 56 55 54 47 44 36 32 28 24 19 17 14 12 14 16 17 16 12
40 29 46 56 59 55 56 56 55 59 67 73 72 64 57 61 60 58 53 46 37 33 30 25 21 16 13 10 10 7 6 9 10
46 40 42 60 64 62 61 55 54 61 71 73 69 62 60 63 62 57 55 46 41 36 32 25 21 17 11 6 5 5 1 5 10
41 51 59 65 68 67 58 56 60 66 70 70 69 66 67 62 65 61 55 49 43 38 31 29 21 12 11 12 16 14 7 1 3
46 21 44 66 69 67 57 57 60 65 68 66 66 67 59 61 56 53 52 46 41 33 29 22 15 12 13 16 22 15 8 2 4
49 44 10 43 65 65 65 66 66 68 61 59 43 26 36 42 44 44 38 35 32 30 28 24 21 20 21 20 17 11 8 11 12
57 49 34 28 33 58 67 67 72 67 57 36 26 22 44 46 52 43 38 29 26 26 25 25 24 25 22 19 17 14 16 18 18
58 47 34 17 32 48 58 62 66 60 35 36 41 46 59 61 56 51 39 22 27 31 32 30 26 23 18 15 11 16 19 19 16
30 35 31 26 23 41 49 52 52 45 37 50 46 52 58 57 54 42 38 37 28 32 38 33 25 20 21 18 15 13 9 9 10
23 15 22 22 19 28 36 34 7 16 44 51 46 51 58 58 54 54 44 34 32 37 29 14 15 13 14 13 10 7 7 4 3
18 22 21 20 14 26 21 29 28 34 60 50 41 59 66 60 54 49 39 40 40 39 27 22 18 18 22 21 18 11 9 5 7
18 15 15 17 15 17 21 26 28 35 51 44 50 59 66 49 56 47 43 43 47 48 39 30 22 20 22 18 12 6 2 10 19
Wind_Direction_850mb
196 201 206 216 226 225 222 224 229 236 236 237 236 235 238 240 241 247 258 259 250 239 216 211 279 334 15 74 85 85 74 63 29
186 196 207 222 224 224 224 225 229 240 239 241 237 236 235 236 238 247 258 257 233 218 203 204 259 276 34 76 95 81 69 42 16
222 183 209 233 222 225 226 229 231 240 243 248 241 237 233 233 234 241 256 235 214 198 201 200 231 165 131 73 213 282 329 336 342
324 266 283 281 239 226 228 228 229 236 239 246 240 234 229 228 229 235 240 216 203 196 198 197 199 193 207 239 256 268 282 294 306
267 274 285 284 223 223 224 231 234 233 238 237 237 231 226 221 225 227 217 207 206 200 198 203 200 210 227 244 241 243 266 302 309
241 279 269 257 219 227 227 229 230 229 235 233 230 223 217 216 218 214 204 202 197 196 194 191 199 210 240 268 277 268 286 311 320
218 213 227 241 221 226 229 231 230 227 227 227 221 214 210 213 212 200 195 189 186 182 189 195 198 214 262 286 285 269 278 287 281
237 220 201 219 220 214 223 225 225 222 221 222 210 203 204 208 197 191 188 185 180 183 188 194 208 236 259 264 260 263 269 272 286
208 212 200 198 204 209 211 208 210 212 214 207 202 200 202 196 189 187 186 184 186 193 200 204 219 230 230 251 264 272 265 263 271
233 212 203 201 201 209 208 208 208 207 208 202 199 201 198 190 190 190 188 187 191 198 203 213 220 216 239 260 280 262 244 244 250
271 234 223 210 211 216 212 211 211 208 202 200 202 200 197 195 193 191 187 191 197 205 211 220 213 215 220 222 199 168 186 258 266
278 267 241 226 227 218 215 214 211 205 202 204 202 202 199 198 193 192 191 198 200 209 216 204 208 206 183 177 155 137 119 62 332
26 266 246 233 228 220 219 217 211 206 205 204 209 207 199 193 193 193 195 205 207 209 202 198 190 177 163 161 158 158 158 151 37
18 16 341 241 243 234 223 213 207 202 201 204 233 242 207 196 188 195 206 209 215 208 192 191 176 161 160 163 175 195 236 277 304
15 11 359 305 258 237 227 216 208 199 205 218 205 196 187 192 192 201 208 213 229 207 199 189 188 179 180 195 208 221 247 268 290
11 6 0 324 257 240 226 220 210 206 214 185 181 186 193 194 191 190 190 196 208 222 202 194 187 195 197 228 238 240 248 260 279
339 346 349 326 253 230 222 213 219 219 211 193 196 191 196 187 179 178 192 190 194 197 208 187 187 209 227 240 238 251 240 237 278
296 330 344 334 290 251 210 209 137 348 207 199 189 193 196 185 184 188 188 188 191 192 191 186 179 184 210 210 197 194 185 163 141
303 320 349 345 282 261 237 226 265 227 229 216 193 187 197 192 196 187 189 183 180 179 179 158 147 138 135 129 118 116 133 167 268
286 297 342 354 326 257 248 248 252 209 210 211 196 195 196 211 186 179 187 184 177 170 167 167 156 146 149 136 132 146 207 266 280